Vorticity
13 14 15 15 16 15 16 15 3 4 11 3 9 10 3 3 1 6 8 8 2 1 3 1 2 -0 1 1 1 1 3 4 6 6 4 3 3 4 3 4 7 5 5
7 6 5 5 4 2 2 4 11 18 20 15 2 7 -6 9 2 4 3 2 13 6 1 3 1 1 2 1 -2 1 2 1 3 4 4 3 3 4 4 2 4 3 3
10 10 11 10 9 7 6 6 6 5 4 6 11 24 3 -0 1 -1 4 3 2 8 9 1 3 2 2 1 2 -1 0 0 1 1 2 4 4 2 6 4 4 4 3
11 12 11 10 9 7 6 7 7 7 8 7 8 5 3 26 8 2 -5 5 2 -0 5 12 3 2 5 1 0 1 1 2 -0 0 1 1 2 3 2 6 4 5 6
16 21 21 21 20 19 17 14 9 5 6 6 7 8 9 8 12 9 6 -2 6 5 1 1 7 6 1 5 4 1 3 1 1 2 3 4 4 3 4 1 1 7 3
12 20 25 29 31 43 56 66 64 53 41 22 5 3 6 8 10 -2 14 4 2 8 5 2 3 2 6 2 -4 31 6 4 5 3 2 1 2 3 5 6 -1 0 3
13 18 27 13 13 13 15 4 13 28 46 55 53 48 25 6 6 8 -6 13 6 5 9 8 2 -14 23 7 38 6 109 27 23 -7 6 6 5 1 2 3 4 4 -5
7 8 17 6 -3 6 -3 3 1 4 8 19 27 48 69 40 28 14 4 -2 5 6 5 9 5 -12 39 -21 -29 44 22 -32 -17 -20 46 26 18 3 2 -5 13 4 2
10 3 14 34 17 3 5 -1 10 3 2 2 2 14 34 44 58 32 26 6 5 -1 5 3 1 -10 3 12 21 -30 21 67 14 -48 -43 -1 60 -4 -9 -16 71 6 1
5 10 4 9 25 39 37 30 24 15 9 3 10 2 9 27 56 39 49 32 16 10 -2 3 5 3 6 -5 6 8 -24 -41 -15 2 -4 31 -3 19 -4 29 -15 17 47
4 5 3 7 4 7 11 15 20 23 40 27 28 24 8 4 22 58 37 47 49 22 15 2 1 -0 10 5 5 3 25 21 23 -8 -45 21 -2 -18 28 19 21 37 4
7 5 5 4 2 2 3 3 4 7 12 8 6 6 17 23 19 13 39 41 40 67 32 17 11 -2 11 11 3 -2 4 2 12 -2 -3 12 -22 11 55 24 -13 -26 42
11 10 6 5 5 6 5 5 5 5 6 3 2 3 7 12 7 9 15 20 17 24 43 65 80 49 16 51 17 3 4 6 5 8 2 4 6 5 3 13 -20 4 12
10 14 11 10 9 8 8 9 9 8 8 7 5 4 6 7 7 7 9 8 8 12 14 15 18 20 18 25 52 52 44 26 20 24 18 17 6 4 13 6 4 8 3
8 9 9 10 8 9 9 8 8 8 9 9 7 6 6 6 7 7 8 8 9 9 9 9 8 11 15 13 18 22 26 27 27 26 19 23 27 15 14 21 20 13 12
9 9 10 11 10 8 8 8 7 9 8 8 9 9 6 7 6 7 7 8 7 9 9 6 4 7 13 15 8 2 5 13 19 22 22 16 24 29 14 12 18 16 15
8 8 7 6 6 8 9 7 7 8 8 10 11 9 8 6 5 5 5 6 6 8 7 9 14 6 4 12 15 4 4 8 12 14 13 15 15 17 22 22 17 12 16
8 9 8 8 6 8 8 7 6 8 10 12 13 11 8 7 6 6 6 5 6 7 5 9 8 8 11 7 8 12 14 15 15 15 14 14 12 13 12 21 22 21 21
9 10 9 8 7 9 9 8 7 6 7 9 9 9 9 9 8 6 5 6 7 6 7 7 7 9 6 12 14 15 15 18 21 24 22 20 19 20 18 27 31 22 19
8 9 9 9 8 9 8 7 7 6 4 5 6 8 9 9 9 7 6 6 6 4 6 5 9 7 7 13 9 24 36 39 38 35 31 30 29 27 27 26 23 30 27
8 9 9 9 9 9 9 9 9 9 6 5 6 6 8 10 10 9 7 5 5 5 4 9 9 5 11 18 44 37 26 25 28 34 33 27 26 22 18 16 16 21 27
8 7 7 8 8 7 8 9 10 11 11 9 8 7 7 8 8 9 7 5 6 7 5 8 9 6 27 50 23 5 7 9 18 27 29 18 18 18 14 11 11 11 11
7 6 6 7 6 7 8 7 7 6 8 9 11 10 7 7 8 8 7 6 5 7 8 8 5 17 52 29 4 10 18 15 17 19 17 11 13 13 13 14 13 11 12
7 6 5 6 5 5 5 5 4 5 4 6 8 11 10 6 7 8 8 6 7 6 7 9 10 36 48 11 8 22 20 16 14 16 15 11 9 8 10 10 5 3 6
7 5 6 5 6 5 5 5 5 6 5 5 6 9 12 7 6 8 8 6 9 10 7 6 13 48 32 5 19 19 18 16 15 15 14 15 13 9 4 5 10 14 20
6 5 5 5 5 5 5 5 5 6 7 5 5 7 12 9 7 8 9 5 9 9 9 12 24 44 13 8 18 13 10 9 8 10 12 13 14 18 22 26 25 20 19
Height
5796 5796 5795 5794 5793 5796 5797 5799 5801 5804 5807 5808 5810 5813 5814 5814 5817 5818 5818 5820 5822 5825 5828 5831 5831 5832 5832 5833 5833 5833 5834 5834 5834 5832 5834 5834 5834 5835 5836 5834 5835 5835 5833
5787 5787 5787 5786 5785 5784 5783 5786 5787 5789 5792 5796 5799 5799 5801 5802 5805 5806 5806 5807 5811 5815 5816 5819 5821 5822 5822 5822 5823 5823 5824 5824 5824 5824 5823 5825 5827 5829 5827 5825 5826 5826 5824
5778 5778 5778 5777 5776 5775 5773 5771 5771 5774 5776 5779 5782 5785 5787 5788 5790 5792 5793 5795 5797 5800 5802 5806 5809 5812 5813 5814 5815 5814 5814 5815 5814 5813 5811 5813 5818 5818 5818 5817 5817 5816 5816
5769 5768 5767 5766 5764 5763 5762 5761 5759 5756 5757 5760 5763 5767 5770 5772 5773 5776 5779 5781 5784 5786 5788 5790 5794 5797 5800 5803 5804 5803 5804 5802 5805 5802 5801 5799 5803 5806 5808 5807 5807 5807 5807
5759 5757 5755 5752 5749 5748 5746 5745 5744 5742 5740 5740 5742 5746 5750 5754 5756 5759 5761 5766 5769 5771 5774 5776 5778 5782 5783 5787 5790 5789 5790 5789 5790 5789 5789 5788 5786 5790 5793 5798 5799 5794 5796
5749 5746 5742 5739 5735 5734 5731 5729 5726 5725 5723 5722 5722 5723 5727 5731 5736 5741 5745 5748 5752 5755 5758 5762 5763 5765 5768 5771 5775 5769 5772 5768 5766 5770 5773 5774 5774 5773 5774 5778 5787 5787 5788
5741 5736 5732 5730 5728 5726 5725 5723 5719 5714 5709 5706 5704 5705 5704 5707 5714 5720 5727 5730 5735 5738 5742 5745 5746 5750 5753 5754 5755 5755 5745 5745 5751 5751 5751 5754 5756 5757 5759 5758 5761 5770 5777
5735 5731 5728 5726 5723 5721 5719 5716 5713 5709 5704 5699 5694 5689 5686 5686 5689 5697 5705 5713 5717 5722 5726 5729 5730 5732 5737 5734 5734 5734 5737 5735 5730 5732 5732 5734 5739 5738 5740 5742 5741 5744 5754
5730 5728 5724 5720 5718 5716 5714 5711 5706 5703 5698 5692 5687 5682 5676 5670 5670 5675 5682 5691 5699 5703 5708 5712 5714 5716 5718 5715 5717 5714 5716 5718 5713 5718 5714 5714 5715 5718 5722 5720 5723 5726 5726
5729 5726 5722 5718 5715 5712 5709 5705 5701 5697 5693 5689 5684 5678 5672 5664 5658 5658 5662 5669 5678 5685 5689 5693 5696 5698 5701 5699 5699 5698 5697 5694 5694 5697 5700 5697 5697 5697 5703 5704 5705 5706 5707
5725 5723 5720 5717 5715 5711 5707 5703 5698 5693 5688 5684 5680 5675 5669 5662 5655 5650 5651 5654 5659 5666 5672 5676 5679 5680 5682 5685 5682 5683 5680 5678 5677 5676 5678 5679 5683 5683 5686 5683 5687 5687 5687
5722 5720 5717 5715 5713 5709 5705 5701 5697 5692 5687 5682 5677 5673 5667 5662 5657 5651 5648 5647 5649 5651 5653 5659 5662 5663 5662 5667 5665 5664 5663 5663 5664 5660 5660 5662 5667 5668 5670 5666 5666 5667 5667
5719 5717 5714 5712 5709 5707 5704 5700 5696 5692 5687 5682 5676 5671 5666 5661 5656 5652 5648 5646 5645 5644 5645 5647 5649 5649 5646 5646 5648 5644 5643 5643 5643 5643 5639 5639 5643 5646 5646 5644 5645 5651 5651
5716 5714 5711 5709 5706 5703 5701 5698 5694 5689 5684 5679 5675 5670 5665 5660 5655 5651 5648 5645 5643 5641 5640 5639 5639 5638 5635 5632 5630 5626 5623 5620 5618 5618 5618 5617 5620 5621 5623 5623 5623 5626 5632
5713 5711 5708 5706 5703 5700 5697 5693 5689 5685 5680 5676 5671 5667 5663 5659 5654 5649 5645 5642 5639 5637 5634 5631 5629 5625 5622 5619 5616 5612 5608 5604 5599 5595 5593 5590 5591 5594 5593 5598 5598 5601 5606
5709 5707 5705 5702 5698 5695 5692 5688 5684 5681 5677 5673 5668 5664 5659 5656 5652 5648 5644 5640 5636 5632 5628 5624 5619 5614 5609 5604 5599 5596 5592 5586 5580 5576 5571 5568 5567 5568 5569 5572 5574 5576 5578
5704 5702 5699 5696 5693 5691 5687 5684 5681 5677 5674 5670 5666 5661 5656 5652 5648 5644 5639 5635 5630 5626 5621 5615 5610 5604 5598 5591 5585 5578 5571 5566 5561 5555 5549 5546 5543 5543 5545 5545 5544 5547 5552
5698 5696 5694 5691 5689 5686 5683 5680 5677 5674 5670 5666 5661 5657 5653 5648 5644 5639 5634 5628 5622 5616 5611 5604 5597 5590 5583 5575 5567 5559 5551 5542 5535 5531 5527 5524 5521 5518 5520 5521 5520 5519 5521
5693 5691 5688 5686 5684 5682 5679 5676 5673 5669 5665 5661 5656 5652 5647 5642 5637 5632 5627 5620 5614 5607 5599 5590 5582 5574 5564 5555 5546 5537 5528 5519 5511 5504 5499 5498 5498 5495 5494 5494 5496 5498 5497
5688 5686 5683 5681 5679 5677 5674 5671 5667 5664 5660 5656 5651 5646 5640 5635 5630 5625 5619 5612 5605 5597 5588 5578 5568 5557 5546 5534 5522 5510 5499 5492 5486 5480 5475 5473 5472 5472 5474 5475 5476 5478 5478
5684 5682 5679 5677 5675 5672 5669 5666 5663 5659 5655 5650 5646 5640 5634 5629 5623 5616 5609 5603 5595 5587 5578 5568 5556 5543 5529 5515 5501 5489 5481 5475 5470 5465 5461 5459 5457 5457 5459 5460 5461 5461 5461
5679 5677 5675 5673 5670 5667 5665 5662 5658 5655 5650 5646 5640 5635 5629 5622 5615 5608 5600 5592 5584 5575 5565 5554 5541 5526 5511 5496 5487 5480 5472 5464 5458 5454 5450 5449 5447 5447 5447 5447 5448 5448 5448
5674 5672 5670 5669 5666 5663 5660 5657 5653 5649 5644 5639 5634 5628 5622 5615 5607 5599 5592 5583 5573 5563 5552 5541 5528 5513 5496 5485 5478 5471 5464 5456 5450 5445 5442 5439 5438 5437 5437 5436 5436 5435 5435
5668 5666 5665 5663 5661 5658 5655 5651 5647 5643 5638 5632 5627 5620 5614 5607 5599 5591 5582 5573 5564 5553 5540 5528 5514 5499 5485 5477 5470 5463 5456 5450 5444 5439 5436 5433 5430 5428 5427 5425 5423 5422 5421
5662 5661 5659 5658 5656 5653 5649 5645 5640 5636 5631 5625 5620 5613 5606 5599 5591 5582 5573 5563 5550 5538 5527 5514 5500 5487 5478 5470 5462 5456 5450 5444 5439 5434 5430 5426 5423 5419 5417 5415 5412 5410 5408
5655 5654 5653 5651 5649 5646 5642 5638 5634 5629 5624 5618 5612 5605 5598 5591 5583 5575 5567 5552 5540 5527 5513 5499 5485 5476 5466 5461 5454 5449 5444 5438 5433 5427 5422 5418 5413 5410 5406 5403 5401 5399 5397